VE7EOZ-10 Weather Reports


time (UTC)temp
F
wind
direction
speed
knots
gust
knots
rain 1hr
in
rain 24hr
in
rain mn
in
humidity
%
barometer
mb
20260506084600 46 10 0.0 1.7 0.00 0.00 0.00 73 1011.8
20260506084040 46 10 0.0 2.6 0.00 0.00 0.00 73 1011.8
20260506083540 46 10 0.0 2.6 0.00 0.00 0.00 72 1011.8
20260506083040 46 10 0.9 2.6 0.00 0.00 0.00 72 1011.8
20260506082538 46 10 0.0 3.5 0.00 0.00 0.00 72 1011.7
20260506082036 46 336 0.0 0.9 0.00 0.00 0.00 71 1011.9
20260506081541 46 336 0.0 0.9 0.00 0.00 0.00 71 1011.8
20260506081034 47 336 0.0 0.0 0.00 0.00 0.00 70 1011.8
20260506080533 47 336 0.0 0.9 0.00 0.00 0.00 70 1011.7
20260506073527 48 336 0.0 1.7 0.00 0.00 0.00 68 1011.4
20260506073038 49 336 0.0 1.7 0.00 0.00 0.00 67 1011.4
20260506072524 49 336 0.0 1.7 0.00 0.00 0.00 67 1011.3
20260506072025 49 336 0.0 0.0 0.00 0.00 0.00 67 1011.4
20260506071524 49 336 0.0 0.0 0.00 0.00 0.00 67 1011.4
20260506071022 49 336 0.0 0.0 0.00 0.00 0.00 67 1011.3
20260506070524 49 336 0.0 1.7 0.00 0.00 0.00 67 1011.3
20260506062020 51 336 0.0 0.0 0.00 0.00 0.00 63 1010.7
20260506061520 52 336 0.0 0.0 0.00 0.00 0.00 61 1010.6
20260506061020 52 336 0.0 0.0 0.00 0.00 0.00 61 1010.6
20260506060519 52 336 0.0 0.0 0.00 0.00 0.00 61 1010.6
20260506051021 56 336 0.0 0.0 0.00 0.00 0.00 55 1010.6
20260506050517 56 336 0.0 0.0 0.00 0.00 0.00 53 1010.6
20260506045017 58 336 0.0 0.0 0.00 0.00 0.00 50 1010.5
20260506044547 58 336 0.0 0.0 0.00 0.00 0.00 50 1010.5
20260506044017 59 336 0.0 0.0 0.00 0.00 0.00 49 1010.5
20260506043517 59 336 0.0 0.0 0.00 0.00 0.00 47 1010.5
20260506043017 59 336 0.0 0.0 0.00 0.00 0.00 49 1010.4
20260506042517 60 336 0.0 0.0 0.00 0.00 0.00 49 1010.4
20260506042021 61 336 0.0 0.0 0.00 0.00 0.00 49 1010.4
20260506041517 61 336 0.0 0.0 0.00 0.00 0.00 46 1010.3
20260506041021 62 336 0.0 0.0 0.00 0.00 0.00 46 1010.3
20260506040515 62 336 0.0 0.0 0.00 0.00 0.00 45 1010.3
20260506040015 63 336 0.0 0.0 0.00 0.00 0.00 42 1010.4
20260506035515 63 336 0.0 0.0 0.00 0.00 0.00 42 1010.3
20260506035015 64 336 0.0 0.0 0.00 0.00 0.00 41 1010.2
20260506034537 64 336 0.0 0.0 0.00 0.00 0.00 39 1010.3
20260506034014 65 336 0.0 0.0 0.00 0.00 0.00 40 1010.3
20260506033515 66 336 0.0 0.0 0.00 0.00 0.00 39 1010.3
20260506033014 66 336 0.0 0.0 0.00 0.00 0.00 37 1010.3
20260506032514 67 336 0.0 0.0 0.00 0.00 0.00 37 1010.4
20260506032014 67 336 0.0 0.0 0.00 0.00 0.00 35 1010.4
20260506031515 68 336 0.0 0.0 0.00 0.00 0.00 35 1010.3
20260506031014 69 336 0.0 0.0 0.00 0.00 0.00 36 1010.3
20260506030513 69 336 0.0 0.0 0.00 0.00 0.00 33 1010.3
20260506030013 70 336 0.0 0.0 0.00 0.00 0.00 33 1010.3
20260506025513 70 336 0.0 0.0 0.00 0.00 0.00 31 1010.3
20260506025012 71 336 0.0 0.9 0.00 0.00 0.00 32 1010.3
20260506024512 71 336 0.0 0.9 0.00 0.00 0.00 29 1010.4
20260506024011 72 336 0.0 0.9 0.00 0.00 0.00 28 1010.4
20260506023512 72 336 0.0 0.9 0.00 0.00 0.00 29 1010.5
20260506023011 72 336 0.0 0.9 0.00 0.00 0.00 31 1010.5
20260506022510 73 336 0.0 0.9 0.00 0.00 0.00 28 1010.5
20260506022011 73 336 0.0 0.9 0.00 0.00 0.00 30 1010.5
20260506021510 74 336 0.0 0.9 0.00 0.00 0.00 29 1010.6
20260506021010 74 336 0.0 0.9 0.00 0.00 0.00 28 1010.6
20260506020509 74 336 0.0 1.7 0.00 0.00 0.00 24 1010.6
20260506020008 74 336 0.0 2.6 0.00 0.00 0.00 25 1010.6
20260506015508 74 336 1.7 2.6 0.00 0.00 0.00 25 1010.6
20260506015011 74 338 0.0 1.7 0.00 0.00 0.00 24 1010.7
20260506014506 74 338 0.0 1.7 0.00 0.00 0.00 24 1010.7
20260506014005 75 331 0.0 2.6 0.00 0.00 0.00 26 1010.7
20260506013505 75 331 0.0 3.5 0.00 0.00 0.00 24 1010.8
20260506013004 75 330 0.0 3.5 0.00 0.00 0.00 26 1010.9
20260506012504 75 13 0.0 1.7 0.00 0.00 0.00 26 1010.9
20260506012003 75 13 0.0 0.9 0.00 0.00 0.00 25 1010.9
20260506011503 75 9 0.0 2.6 0.00 0.00 0.00 26 1011.0
20260506011003 75 338 0.9 2.6 0.00 0.00 0.00 23 1011.1
20260506010600 75 336 0.0 3.5 0.00 0.00 0.00 23 1011.2
20260506010104 75 294 0.0 5.2 0.00 0.00 0.00 23 1011.2
20260506005600 75 311 2.6 5.2 0.00 0.00 0.00 23 1011.3
20260506005058 75 269 0.0 1.7 0.00 0.00 0.00 24 1011.3
20260506004626 76 269 0.0 1.7 0.00 0.00 0.00 24 1011.4
20260506004057 75 289 0.0 1.7 0.00 0.00 0.00 23 1011.4
20260506003557 76 289 0.0 1.7 0.00 0.00 0.00 24 1011.5
20260506003110 76 289 0.0 2.6 0.00 0.00 0.00 23 1011.7
20260506002555 76 360 0.0 3.5 0.00 0.00 0.00 22 1011.7
20260506002054 76 275 0.0 3.5 0.00 0.00 0.00 23 1011.8
20260506001557 76 327 0.9 4.3 0.00 0.00 0.00 23 1011.9
20260506001053 75 30 0.0 4.3 0.00 0.00 0.00 22 1011.9
20260506000552 75 338 0.0 3.5 0.00 0.00 0.00 24 1011.9
20260506000051 75 338 0.9 3.5 0.00 0.00 0.00 23 1012.1
20260505235550 75 338 0.0 1.7 0.00 0.00 0.00 23 1012.1
20260505235050 75 338 0.0 1.7 0.00 0.00 0.00 23 1012.2
20260505234614 75 338 0.0 3.5 0.00 0.00 0.00 23 1012.3
20260505234048 75 338 1.7 3.5 0.00 0.00 0.00 22 1012.3
20260505233547 75 338 1.7 4.3 0.00 0.00 0.00 21 1012.4
20260505233048 75 240 1.7 4.3 0.00 0.00 0.00 22 1012.5
20260505232546 75 308 0.0 3.5 0.00 0.00 0.00 22 1012.6
20260505232046 75 308 0.0 2.6 0.00 0.00 0.00 22 1012.7
20260505231545 75 308 0.0 2.6 0.00 0.00 0.00 21 1012.8
20260505231042 75 308 0.0 2.6 0.00 0.00 0.00 22 1012.9
20260505230542 75 250 0.0 4.3 0.00 0.00 0.00 23 1013.0
20260505230043 75 251 0.9 5.2 0.00 0.00 0.00 22 1013.0
20260505225541 75 258 1.7 6.1 0.00 0.00 0.00 21 1013.1
20260505225040 76 266 2.6 6.1 0.00 0.00 0.00 21 1013.2
20260505224541 76 332 0.9 3.5 0.00 0.00 0.00 22 1013.2
20260505224038 76 262 0.0 3.5 0.00 0.00 0.00 22 1013.3
20260505223538 76 262 0.0 4.3 0.00 0.00 0.00 22 1013.3
20260505223039 76 260 0.0 2.6 0.00 0.00 0.00 22 1013.4
20260505222538 75 260 0.0 2.6 0.00 0.00 0.00 22 1013.5
20260505222037 75 260 0.9 2.6 0.00 0.00 0.00 21 1013.5
20260505221537 76 213 0.0 1.7 0.00 0.00 0.00 22 1013.7
20260505221035 75 213 0.0 0.9 0.00 0.00 0.00 20 1013.8
20260505220534 76 213 0.0 2.6 0.00 0.00 0.00 21 1013.9
20260505220046 76 213 0.9 2.6 0.00 0.00 0.00 21 1013.9
20260505215534 76 215 0.0 4.3 0.00 0.00 0.00 22 1013.9
20260505215032 75 173 0.9 4.3 0.00 0.00 0.00 23 1014.1
20260505214537 75 125 0.0 2.6 0.00 0.00 0.00 23 1014.2
20260505214030 75 125 0.0 2.6 0.00 0.00 0.00 23 1014.2
20260505213528 75 194 0.0 2.6 0.00 0.00 0.00 24 1014.3
20260505213028 75 194 0.0 3.5 0.00 0.00 0.00 25 1014.4
20260505212527 74 194 0.9 3.5 0.00 0.00 0.00 24 1014.6
20260505212025 74 226 0.0 3.5 0.00 0.00 0.00 26 1014.6
20260505211524 73 305 0.0 6.1 0.00 0.00 0.00 26 1014.7
20260505211023 72 306 1.7 6.1 0.00 0.00 0.00 25 1014.7
20260505210522 72 289 0.9 4.3 0.00 0.00 0.00 24 1014.8
20260505210021 72 284 0.0 2.6 0.00 0.00 0.00 25 1014.8
20260505205523 72 284 0.0 3.5 0.00 0.00 0.00 26 1014.9
20260505205019 72 284 2.6 3.5 0.00 0.00 0.00 25 1014.9
20260505204519 72 265 0.0 4.3 0.00 0.00 0.00 25 1015.1
20260505204019 72 266 1.7 4.3 0.00 0.00 0.00 25 1015.1
20260505203518 71 255 0.9 4.3 0.00 0.00 0.00 26 1015.1
20260505203018 71 242 0.0 3.5 0.00 0.00 0.00 27 1015.2
20260505202519 71 314 0.0 5.2 0.00 0.00 0.00 27 1015.3
20260505202018 71 314 1.7 5.2 0.00 0.00 0.00 25 1015.3
20260505201522 71 343 1.7 5.2 0.00 0.00 0.00 27 1015.3
20260505201016 71 313 1.7 5.2 0.00 0.00 0.00 27 1015.4
20260505200515 72 250 0.9 2.6 0.00 0.00 0.00 27 1015.5
20260505200014 72 298 0.0 2.6 0.00 0.00 0.00 27 1015.6
20260505195513 71 348 0.9 4.3 0.00 0.00 0.00 28 1015.7
20260505195016 71 50 0.9 4.3 0.00 0.00 0.00 28 1015.8
20260505194527 71 235 0.9 4.3 0.00 0.00 0.00 28 1015.8
20260505194009 70 317 0.0 1.7 0.00 0.00 0.00 28 1015.9
20260505193507 69 321 0.0 1.7 0.00 0.00 0.00 30 1016.0
20260505193021 69 321 0.0 2.6 0.00 0.00 0.00 29 1016.1
20260505192507 68 321 0.0 3.5 0.00 0.00 0.00 30 1016.2
20260505192006 68 319 0.0 1.7 0.00 0.00 0.00 31 1016.2
20260505191502 67 319 0.0 1.7 0.00 0.00 0.00 31 1016.3
20260505191001 67 319 0.0 2.6 0.00 0.00 0.00 31 1016.5
20260505190501 67 319 0.0 3.5 0.00 0.00 0.00 32 1016.5
20260505190100 66 319 0.0 3.5 0.00 0.00 0.00 32 1016.6
20260505185559 66 317 0.0 3.5 0.00 0.00 0.00 33 1016.6
20260505185057 65 317 0.0 5.2 0.00 0.00 0.00 35 1016.7
20260505184602 65 317 0.0 5.2 0.00 0.00 0.00 34 1016.8
20260505184055 64 238 0.9 5.2 0.00 0.00 0.00 34 1016.8
20260505183554 64 326 1.7 5.2 0.00 0.00 0.00 35 1016.8
20260505183053 64 308 0.9 6.1 0.00 0.00 0.00 36 1016.8
20260505182552 63 294 0.0 6.1 0.00 0.00 0.00 37 1017.0
20260505182054 63 271 0.9 4.3 0.00 0.00 0.00 38 1017.0
20260505181551 62 223 0.9 6.1 0.00 0.00 0.00 37 1017.0
20260505181051 62 333 0.0 3.5 0.00 0.00 0.00 40 1017.0
20260505180548 62 334 1.7 3.5 0.00 0.00 0.00 40 1017.0
20260505180053 61 294 0.0 3.5 0.00 0.00 0.00 40 1017.1
20260505175544 61 253 0.9 3.5 0.00 0.00 0.00 43 1017.1
20260505175046 60 284 0.9 3.5 0.00 0.00 0.00 43 1017.1
20260505174600 60 313 0.0 3.5 0.00 0.00 0.00 43 1017.2
20260505174041 59 313 0.9 3.5 0.00 0.00 0.00 45 1017.3
20260505173539 59 316 0.9 3.5 0.00 0.00 0.00 45 1017.3
20260505173039 59 316 0.0 2.6 0.00 0.00 0.00 46 1017.3
20260505172540 58 316 0.9 4.3 0.00 0.00 0.00 46 1017.4
20260505172036 58 316 1.7 4.3 0.00 0.00 0.00 45 1017.5
20260505171536 57 316 1.7 3.5 0.00 0.00 0.00 47 1017.5
20260505171032 57 317 0.0 2.6 0.00 0.00 0.00 47 1017.5
20260505170531 56 317 0.9 3.5 0.00 0.00 0.00 49 1017.6
20260505170033 55 317 0.9 3.5 0.00 0.00 0.00 50 1017.7
20260505165531 55 318 0.0 2.6 0.00 0.00 0.00 51 1017.7
20260505165029 54 318 0.0 2.6 0.00 0.00 0.00 52 1017.7
20260505164526 54 317 0.9 3.5 0.00 0.00 0.00 52 1017.8
20260505164025 53 194 0.9 3.5 0.00 0.00 0.00 53 1017.8
20260505163524 52 331 0.0 2.6 0.00 0.00 0.00 55 1017.9
20260505163022 52 342 0.0 1.7 0.00 0.00 0.00 55 1017.9
20260505162520 51 342 0.0 2.6 0.00 0.00 0.00 55 1017.9
20260505162019 51 342 0.9 2.6 0.00 0.00 0.00 58 1018.0
20260505161518 50 64 0.9 2.6 0.00 0.00 0.00 59 1018.0
20260505161016 49 64 0.0 2.6 0.00 0.00 0.00 61 1018.0
20260505160515 48 65 0.0 0.9 0.00 0.00 0.00 64 1017.9
20260505153011 43 65 0.0 0.9 0.00 0.00 0.00 76 1018.1
20260505152511 42 65 0.0 0.9 0.00 0.00 0.00 77 1018.0
20260505152010 41 65 0.0 0.9 0.00 0.00 0.00 79 1018.1
20260505151510 41 65 0.0 0.9 0.00 0.00 0.00 80 1018.1
20260505151009 40 65 0.0 0.0 0.00 0.00 0.00 81 1018.0
20260505150509 39 65 0.0 0.0 0.00 0.00 0.00 83 1018.1
20260505140507 36 65 0.0 0.0 0.00 0.00 0.00 82 1018.0
20260505124556 38 65 0.0 0.0 0.00 0.00 0.00 77 1017.5
20260505124055 38 65 0.0 0.0 0.00 0.00 0.00 77 1017.6
20260505123553 38 65 0.0 0.0 0.00 0.00 0.00 77 1017.6
20260505123109 38 65 0.0 0.0 0.00 0.00 0.00 77 1017.6
20260505122552 38 65 0.0 0.0 0.00 0.00 0.00 77 1017.6
20260505122052 38 65 0.0 0.0 0.00 0.00 0.00 77 1017.6
20260505121551 39 65 0.0 0.0 0.00 0.00 0.00 76 1017.6
20260505121051 39 65 0.0 0.0 0.00 0.00 0.00 75 1017.6
20260505120550 39 65 0.0 0.0 0.00 0.00 0.00 75 1017.6
20260505120049 39 65 0.0 0.0 0.00 0.00 0.00 76 1017.6
20260505115547 39 65 0.0 0.0 0.00 0.00 0.00 75 1017.5
20260505115048 39 65 0.0 0.0 0.00 0.00 0.00 75 1017.5
20260505114609 40 65 0.0 0.0 0.00 0.00 0.00 74 1017.5
20260505114046 40 65 0.0 0.0 0.00 0.00 0.00 74 1017.5
20260505113548 40 65 0.0 0.0 0.00 0.00 0.00 73 1017.6
20260505113043 40 65 0.0 0.0 0.00 0.00 0.00 73 1017.6
20260505112542 41 65 0.0 0.0 0.00 0.00 0.00 74 1017.6
20260505112042 41 65 0.0 0.0 0.00 0.00 0.00 74 1017.5
20260505111556 41 65 0.0 0.0 0.00 0.00 0.00 74 1017.5
20260505111043 42 65 0.0 0.0 0.00 0.00 0.00 74 1017.5
20260505110541 42 65 0.0 0.0 0.00 0.00 0.00 73 1017.5
20260505102035 42 65 0.0 0.0 0.00 0.00 0.00 71 1017.1
20260505101535 42 65 0.0 0.0 0.00 0.00 0.00 70 1017.1
20260505101033 43 65 0.0 0.0 0.00 0.00 0.00 70 1017.1
20260505100532 43 65 0.0 0.0 0.00 0.00 0.00 70 1017.1
20260505100035 43 65 0.0 0.0 0.00 0.00 0.00 69 1016.9
20260505095534 43 65 0.0 0.0 0.00 0.00 0.00 70 1016.9
20260505095034 43 65 0.0 0.0 0.00 0.00 0.00 70 1016.9
20260505094530 43 65 0.0 0.0 0.00 0.00 0.00 70 1016.9
20260505094030 43 65 0.0 0.0 0.00 0.00 0.00 70 1016.8
20260505093529 42 65 0.0 0.0 0.00 0.00 0.00 70 1016.8
20260505093030 42 65 0.0 0.0 0.00 0.00 0.00 71 1016.8
20260505092529 42 65 0.0 0.0 0.00 0.00 0.00 71 1016.8